EN

Hourly Weather Usovka

Today, 27 October, Tuesday

Time Temperature Precipitation Wind Pressure Humidity
00:00 0°C° 0 mm 1 mps 749 mmHg 89%
01:00 -1°C° 0 mm 1 mps 750 mmHg 88%
02:00 -1°C° 0 mm 1 mps 750 mmHg 87%
03:00 -1°C° 0 mm 1 mps 751 mmHg 86%
04:00 -1°C° 0 mm 1 mps 751 mmHg 85%
05:00 -1°C° 0 mm 1 mps 751 mmHg 85%
06:00 -1°C° 0 mm 1 mps 751 mmHg 84%
07:00 0°C° 0 mm 1 mps 752 mmHg 79%
08:00 +1°C° 0 mm 1 mps 752 mmHg 74%
09:00 +1°C° 0 mm 1 mps 752 mmHg 69%
10:00 +3°C° 0 mm 1 mps 752 mmHg 63%
11:00 +4°C° 0 mm 1 mps 753 mmHg 57%
12:00 +4°C° 0 mm 2 mps 753 mmHg 51%
13:00 +5°C° 0 mm 1 mps 753 mmHg 52%
14:00 +5°C° 0 mm 1 mps 753 mmHg 53%
15:00 +5°C° 0 mm 1 mps 753 mmHg 54%
16:00 +4°C° 0 mm 1 mps 753 mmHg 58%
17:00 +3°C° 0 mm 1 mps 753 mmHg 62%
18:00 -1°C° 0 mm 2 mps 752 mmHg 66%
19:00 -1°C° 0 mm 2 mps 753 mmHg 67%
20:00 -1°C° 0 mm 2 mps 753 mmHg 68%
21:00 -1°C° 0 mm 2 mps 753 mmHg 68%
22:00 -1°C° 0 mm 2 mps 753 mmHg 69%
23:00 -1°C° 0 mm 2 mps 753 mmHg 70%

Tomorrow, 28 October, Wednesday

Time Temperature Precipitation Wind Pressure Humidity
00:00 -1°C° 0 mm 2 mps 753 mmHg 71%
01:00 -2°C° 0 mm 2 mps 753 mmHg 72%
02:00 -2°C° 0 mm 2 mps 753 mmHg 72%
03:00 -2°C° 0 mm 2 mps 753 mmHg 73%
04:00 -2°C° 0 mm 2 mps 753 mmHg 73%
05:00 -2°C° 0 mm 2 mps 753 mmHg 74%
06:00 -2°C° 0 mm 2 mps 752 mmHg 74%
07:00 -2°C° 0 mm 3 mps 753 mmHg 69%
08:00 -1°C° 0 mm 3 mps 753 mmHg 65%
09:00 0°C° 0 mm 3 mps 753 mmHg 60%
10:00 +1°C° 0 mm 3 mps 753 mmHg 56%
11:00 +3°C° 0 mm 4 mps 752 mmHg 52%
12:00 +4°C° 0 mm 4 mps 752 mmHg 49%
13:00 +4°C° 0 mm 4 mps 752 mmHg 50%
14:00 +4°C° 0 mm 3 mps 752 mmHg 52%
15:00 +4°C° 0 mm 3 mps 752 mmHg 53%
16:00 +2°C° 0 mm 3 mps 751 mmHg 59%
17:00 +1°C° 0 mm 3 mps 751 mmHg 65%
18:00 -1°C° 0 mm 3 mps 751 mmHg 72%
19:00 -1°C° 0 mm 3 mps 751 mmHg 72%
20:00 -1°C° 0 mm 3 mps 751 mmHg 72%
21:00 -2°C° 0 mm 3 mps 751 mmHg 72%
22:00 -2°C° 0 mm 3 mps 751 mmHg 72%
23:00 -2°C° 0 mm 3 mps 751 mmHg 72%

Day after tomorrow, 29 October, Thursday

Time Temperature Precipitation Wind Pressure Humidity
00:00 -2°C° 0 mm 3 mps 751 mmHg 72%
01:00 -2°C° 0 mm 2 mps 751 mmHg 72%
02:00 -2°C° 0 mm 2 mps 751 mmHg 72%
03:00 -2°C° 0 mm 2 mps 751 mmHg 73%
04:00 -2°C° 0 mm 2 mps 751 mmHg 72%
05:00 -2°C° 0 mm 2 mps 751 mmHg 72%
06:00 -2°C° 0 mm 2 mps 751 mmHg 72%
07:00 -1°C° 0 mm 3 mps 751 mmHg 67%
08:00 0°C° 0 mm 3 mps 751 mmHg 62%
09:00 +1°C° 0 mm 3 mps 751 mmHg 57%
10:00 +2°C° 0 mm 3 mps 751 mmHg 54%
11:00 +4°C° 0 mm 4 mps 750 mmHg 50%
12:00 +5°C° 0 mm 4 mps 750 mmHg 47%
13:00 +5°C° 0 mm 4 mps 750 mmHg 49%
14:00 +5°C° 0 mm 3 mps 750 mmHg 51%
15:00 +5°C° 0 mm 3 mps 749 mmHg 53%
16:00 +3°C° 0 mm 3 mps 749 mmHg 59%
17:00 +2°C° 0 mm 3 mps 749 mmHg 64%
18:00 +1°C° 0 mm 3 mps 749 mmHg 70%
19:00 +1°C° 0 mm 3 mps 749 mmHg 68%
20:00 +1°C° 0 mm 3 mps 749 mmHg 67%
21:00 +2°C° 0 mm 3 mps 749 mmHg 66%
22:00 +2°C° 0.2 mm 3 mps 748 mmHg 68%
23:00 +2°C° 0.2 mm 3 mps 748 mmHg 69%

30 October, Friday

Time Temperature Precipitation Wind Pressure Humidity
00:00 +2°C° 0.2 mm 3 mps 748 mmHg 71%
01:00 +2°C° 0.1 mm 3 mps 747 mmHg 73%
02:00 +2°C° 0.1 mm 3 mps 747 mmHg 74%
03:00 +2°C° 0.1 mm 3 mps 747 mmHg 76%
04:00 +2°C° 0 mm 3 mps 747 mmHg 76%
05:00 +3°C° 0 mm 3 mps 747 mmHg 77%
06:00 +3°C° 0 mm 4 mps 747 mmHg 77%
07:00 +3°C° 0 mm 4 mps 746 mmHg 75%
08:00 +4°C° 0 mm 4 mps 746 mmHg 74%
09:00 +4°C° 0 mm 4 mps 746 mmHg 72%
10:00 +5°C° 0 mm 4 mps 746 mmHg 68%
11:00 +6°C° 0 mm 4 mps 746 mmHg 63%
12:00 +7°C° 0 mm 4 mps 746 mmHg 59%
13:00 +7°C° 0 mm 4 mps 745 mmHg 59%
14:00 +7°C° 0 mm 4 mps 745 mmHg 59%
15:00 +7°C° 0 mm 4 mps 745 mmHg 59%
16:00 +6°C° 0 mm 4 mps 745 mmHg 61%
17:00 +6°C° 0 mm 4 mps 745 mmHg 63%
18:00 +5°C° 0 mm 5 mps 745 mmHg 66%
19:00 +5°C° 0 mm 4 mps 744 mmHg 66%
20:00 +5°C° 0 mm 4 mps 744 mmHg 67%
21:00 +5°C° 0 mm 4 mps 744 mmHg 68%
22:00 +5°C° 0 mm 3 mps 744 mmHg 69%
23:00 +4°C° 0 mm 3 mps 744 mmHg 70%

31 October, Saturday

Time Temperature Precipitation Wind Pressure Humidity
00:00 +4°C° 0 mm 3 mps 744 mmHg 71%
01:00 +4°C° 0 mm 3 mps 744 mmHg 72%
02:00 +4°C° 0 mm 3 mps 744 mmHg 72%
03:00 +4°C° 0 mm 3 mps 743 mmHg 72%
04:00 +4°C° 0.4 mm 3 mps 743 mmHg 75%
05:00 +4°C° 0.4 mm 3 mps 743 mmHg 79%
06:00 +3°C° 0.4 mm 3 mps 743 mmHg 82%
07:00 +4°C° 0.1 mm 3 mps 743 mmHg 79%
08:00 +4°C° 0.1 mm 3 mps 743 mmHg 77%
09:00 +4°C° 0.1 mm 3 mps 743 mmHg 74%
10:00 +4°C° 0.1 mm 3 mps 743 mmHg 76%
11:00 +6°C° 0.1 mm 2 mps 743 mmHg 77%
12:00 +6°C° 0.1 mm 2 mps 744 mmHg 79%
13:00 +6°C° 0.2 mm 2 mps 744 mmHg 81%
14:00 +6°C° 0.2 mm 2 mps 744 mmHg 83%
15:00 +7°C° 0.2 mm 1 mps 744 mmHg 85%
16:00 +6°C° 0.2 mm 1 mps 744 mmHg 87%
17:00 +6°C° 0.2 mm 1 mps 744 mmHg 89%
18:00 +5°C° 0.2 mm 2 mps 744 mmHg 91%
19:00 +6°C° 0.1 mm 1 mps 745 mmHg 91%
20:00 +6°C° 0.1 mm 1 mps 745 mmHg 92%
21:00 +6°C° 0.1 mm 1 mps 745 mmHg 93%
22:00 +6°C° 0 mm 1 mps 745 mmHg 92%
23:00 +6°C° 0 mm 1 mps 745 mmHg 92%

1 November, Sunday

Time Temperature Precipitation Wind Pressure Humidity
00:00 +6°C° 0 mm 1 mps 746 mmHg 92%
01:00 +6°C° 0 mm 1 mps 746 mmHg 93%
02:00 +6°C° 0 mm 1 mps 746 mmHg 93%
03:00 +5°C° 0 mm 2 mps 746 mmHg 93%
04:00 +5°C° 0 mm 2 mps 747 mmHg 93%
05:00 +5°C° 0 mm 2 mps 747 mmHg 93%
06:00 +5°C° 0 mm 2 mps 747 mmHg 93%
07:00 +5°C° 0 mm 2 mps 747 mmHg 93%
08:00 +5°C° 0 mm 2 mps 748 mmHg 93%
09:00 +5°C° 0 mm 2 mps 748 mmHg 93%
10:00 +6°C° 0 mm 2 mps 749 mmHg 90%
11:00 +6°C° 0 mm 2 mps 749 mmHg 88%
12:00 +6°C° 0 mm 2 mps 749 mmHg 85%
13:00 +7°C° 0 mm 2 mps 749 mmHg 83%
14:00 +7°C° 0 mm 2 mps 749 mmHg 82%
15:00 +7°C° 0 mm 2 mps 750 mmHg 80%
16:00 +7°C° 0 mm 2 mps 750 mmHg 82%
17:00 +6°C° 0 mm 2 mps 750 mmHg 85%
18:00 +6°C° 0 mm 2 mps 751 mmHg 87%
19:00 +5°C° 0 mm 2 mps 751 mmHg 88%
20:00 +5°C° 0 mm 2 mps 751 mmHg 90%
21:00 +5°C° 0 mm 2 mps 751 mmHg 91%
22:00 +5°C° 0 mm 2 mps 752 mmHg 89%
23:00 +5°C° 0 mm 2 mps 752 mmHg 88%
Show more

We Need Your Consent

Meteoprog and our Service Providers may store and access personal data such as cookies, device identifiers or other similar technologies on your device and process such data to personalise content and ads, as well as provide social media features and to analyse the traffic.

  • Store and/or access information on your device

    Cookies, device identifiers or other information can be stored or accessed on your device for the purposes indicated above.

  • Personalised ads and content, ad and content measurement, audience insights, and products development

    Ads and content can be personalised based on a profile. More data can be added to better personalise ads and content. Ad and content performance can be measured. Insights about the audience who saw the ads and content can be derived. Such data can be used to develop or improve user’s experience, systems and software.

By clicking ‘I Agree’ you will allow the use of indicated cookies, device identifiers, web beacons or other similar technologies. Your settings can be changed in the browser on your device.

For certain purposes, legitimate interests may be relied on, rather than consent. You can read more about this in our Privacy and Cookie Policy.